Location: Country Club Park
(34.0503°N, 118.3212°W)
Time: 01:49:54
(UTC+00:00)

CZ-4C R/B - Pass Details

Date: 26 June 2022
Orbit: 460 x 625 km, 98.1° (Epoch: 08 August)

Event Time Altitude Azimuth Distance (km) Brightness Sun altitude
Rises 12:08:05 0° 160° (SSE) 2,843 6.8 -7.1°
Reaches altitude 10° 12:10:14 10° 157° (SSE) 1,960 6.0 -6.7°
Maximum altitude 12:14:29 66° 76° (ENE) 679 4.1 -6.0°
Drops below altitude 10° 12:18:51 10° 354° (N) 2,007 6.6 -5.3°
Sets 12:21:04 0° 352° (N) 2,918 7.4 -4.9°
